Location: *
(42.5628°N, 2.3633°E)
Time: 21:13:35
(UTC+00:00)

Abrixas rocket - Pass Details

Date: 30 March 2020
Orbit: 344 x 351 km, 48.4° (Epoch: 31 May)

Event Time Altitude Azimuth Distance (km) Brightness Sun altitude
Rises 18:30:44 0° 204° (SSW) 2,148 6.0 -3.8°
Reaches altitude 10° 18:33:11 10° 182° (S) 1,314 4.7 -4.2°
Maximum altitude 18:35:11 17° 139° (SE) 993 3.7 -4.6°
Drops below altitude 10° 18:37:13 10° 96° (E) 1,328 4.1 -4.9°
Enters shadow 18:38:12 - 85° (E) 1,636 4.6 -5.1°
